{"data":{"norad_id":57522,"intl_designator":"2023-115B","name":"STARLINK-30256","alt_names":[],"object_type":"PAYLOAD","status":"ACTIVE","operator":null,"country":"US","launch_date":"2023-08-08","launch_site_code":"AFWTR","launch_vehicle":null,"mission":null,"orbit_class":"UNKNOWN","rcs_meters":null,"size_class":null,"mass_kg":null,"dimensions":null,"purposes":["comms"],"wikipedia_slug":null,"has_3d_model":false,"image_url":null,"decayed_at":null,"tle_current":{"epoch":"2026-05-25T02:25:53.297184Z","epoch_age_seconds":59521,"freshness":"FRESH","line1":"1 57522U 23115B   26145.10131131  .00001645  00000+0  69274-4 0  9999","line2":"2 57522  43.0027 290.3870 0000906 281.9268  78.1482 15.27590772154037","mean_motion":15.27590772,"eccentricity":9.06e-5,"inclination_deg":43.0027,"raan_deg":290.387,"arg_perigee_deg":281.9268,"mean_anomaly_deg":78.1482,"bstar":6.9274e-5,"rev_number":15403,"period_min":94.266083979722,"perigee_km":482.395220448,"apogee_km":483.63846152398,"semimajor_km":6861.153840986,"source":"CELESTRAK","updated_at":"2026-05-25T13:38:18.331778Z"}}}